Location: Campillo
(40.8621°N, 4.2488°W)
Time: 14:50:19
(UTC+00:00)

USA 306 - Pass Details

Date: 28 September 2021
Orbit: 564 x 573 km, 54.0° (Epoch: 24 September)

Event Time Altitude Azimuth Distance (km) Brightness Sun altitude
Rises 19:17:24 0° 314° (NW) 2,761 7.4 -14.7°
Reaches altitude 10° 19:19:59 10° 328° (NNW) 1,864 6.1 -15.2°
Maximum altitude 19:23:29 25° 24° (NNE) 1,176 4.4 -15.8°
Enters shadow 19:24:58 20° 56° (NE) 1,324 4.4 -16.1°
